STARLINK-11338, 61534

Orbit data source: Space-Track

STARLINK-11338, 61534 is a payload satellite owned by SpaceX/Seattle (US) in LEO that was launched on Tue, 15 Oct 2024 UTC via an FALCON 9 launch vehicle from the Air Force Western Test Range (AFWTR). Payload-class satellites include a variety of spacecraft equipped with specific instruments for various scientific and technological missions. These include communications satellites like Starlink; space stations such as the ISS; scientific satellites like the Hubble; Earth observation satellites from companies like Planet Labs, Umbra, and HawkEye 360; GPS; miniature CubeSats for education and research; and military/defense satellites.

Loading next visibility...
Identifier
61534, 2024-184C
Orbit
LEO
Country
Flag of USUS
Related business
Manufacturer
SpaceX/Seattle
Mission
Operational Commercial Communications
Bus & Motor
STARLINK V2MD, Unknown motor
Mass
960 kg wet, ~910 kg dry
Launch date (UTC)
2024-10-15 (2 years ago)
Launch vehicle
FALCON 9
Launch site
Air Force Western Test Range (AFWTR)
Object type
Payload
Rocket body
Debris
Shape & HBR
Box + 2 Pan, 18.1 m
Radar Cross Section
36.964 m², Large (>1 m²)

Expand to show TLE details & history
Last TLE update: 2 days ago

TLE from 2 days ago
0 STARLINK-11338
1 61534U 24184C   26170.09407409 -.00000620  00000-0 -26302-6 0  9996
2 61534  53.1586  96.4085 0000885  87.1232 272.9887 15.69701322 96346
Epoch: 2026-06-19T02:15Z
TLE epoch observation values (Epoch: 2026-06-19T02:15:28.001Z)
Latitude
-0.00003°
Longitude
155.21382°
Altitude
360.635 km
Speed
7.694 km/s
True Right ascension
06h 25m 38s
True Declination
0° 00' 00"
Sunlit
Object was in daylight at epoch
Visualization orbit readout
Latitude
Unknown
Longitude
Unknown
Altitude
Unknown
Speed
Unknown
Apparent Right ascension
Unknown
Apparent Declination
Unknown
Sunlit
N/A
Visualization observer readout
Local Sidereal Time
07:16:55
Azimuth
Unknown
Elevation
Unknown
Doppler factor
Unknown
Orbital elements
Apogee altitude
360.609 km
Perigee altitude
359.416 km
Semi-major axis
6,738.149 km
Eccentricity
0.00009
Inclination
53.1586°
RAAN
96.4085°
Arg. of periapsis
87.1232°
True anomaly
272.97857°
Mean anomaly
272.9887°
Eccentric anomaly
272.98364°
Mean motion
3.92403 °/min
Orbital period
91.74 mins
BSTAR
-2.6302e-7
Loading maneuver chart data...
Computing Atmospheric mass density...
Loading historical data...
Loading historical data...
Loading historical data...
Loading historical data...
Loading historical data...
Loading historical data...
Loading historical data...

Documentation

Showing up to 5 results
|